Date_and_time,latitude,longitude,wind_speed,RelWindDirFrom,WindDirFrom,air_pressure,air_temperature,relative_humidity,Temp,platform_speed_wrt_ground,air_pressure_at_mean_sea_level,platform_orientation
2019-06-19 23:50,50.6304383333333,-96.9807733333333,8.7,10.1,47,981.56,22.8,54,19.61,0.0,1007.10,130.6
2019-06-20 00:00,50.6304516666667,-96.98076,7.7,9.4,51,981.62,22.8,55,19.58,0.0,1007.15,90.0
2019-06-20 00:10,50.6304533333333,-96.98076,6.4,7.6,50,981.60,22.8,55,19.53,0.0,1007.13,90.0
2019-06-20 00:20,50.63042,-96.9807583333333,6.1,7.4,47,981.54,23.0,55,19.44,0.0,1007.06,90.0
2019-06-20 00:30,50.6304516666667,-96.98078,7.1,8.4,50,981.47,22.9,57,19.42,0.0,1006.99,90.0
2019-06-20 00:40,50.6304483333333,-96.9807766666667,7.0,8.0,50,981.40,22.8,57,19.33,0.0,1006.92,90.0
2019-06-20 00:50,50.6304533333333,-96.9807783333333,6.5,7.3,48,981.38,23.0,52,19.44,0.0,1006.89,90.0
2019-06-20 01:00,50.63042,-96.98077,6.3,8.1,46,981.39,23.1,53,19.55,0.0,1006.90,159.8
2019-06-20 01:10,50.6304383333333,-96.9807633333333,7.2,8.0,51,981.40,23.1,54,19.63,0.0,1006.91,159.8
2019-06-20 01:20,50.6304366666667,-96.980775,6.6,7.7,51,981.39,22.8,57,19.84,0.0,1006.92,159.8
2019-06-20 01:30,50.6304716666667,-96.98075,5.9,7.0,54,981.38,22.5,61,19.99,0.0,1006.92,159.8
2019-06-20 01:40,50.6304516666667,-96.98076,5.2,5.9,52,981.36,22.3,61,20.10,0.0,1006.91,159.8
2019-06-20 01:50,50.6304533333333,-96.980765,5.4,6.3,55,981.41,22.3,62,20.08,0.0,1006.95,159.8
2019-06-20 02:00,50.63045,-96.98077,6.2,7.4,57,981.43,22.2,61,20.24,0.0,1006.98,360.0
2019-06-20 02:10,50.6304483333333,-96.980765,5.0,6.2,53,981.47,22.1,61,20.52,0.0,1007.01,360.0
2019-06-20 02:20,50.6304466666667,-96.980765,5.2,6.1,51,981.54,22.1,61,20.30,0.0,1007.09,360.0
2019-06-20 02:30,50.6304483333333,-96.9807616666667,5.2,6.6,50,981.56,21.9,62,20.14,0.0,1007.13,360.0
2019-06-20 02:40,50.6304533333333,-96.9807566666667,5.8,7.3,53,981.58,21.7,62,20.07,0.0,1007.15,360.0
2019-06-20 02:50,50.6304516666667,-96.9807733333333,5.5,6.5,47,981.62,21.6,62,20.15,0.0,1007.18,360.0
2019-06-20 03:00,50.6304483333333,-96.98077,6.1,8.0,45,981.68,21.6,64,20.05,0.0,1007.26,192.6
2019-06-20 03:10,50.63046,-96.9808333333333,7.4,8.6,48,981.68,21.5,65,19.99,0.0,1007.27,192.6
2019-06-20 03:20,50.6304533333333,-96.9807783333333,6.3,7.2,48,981.74,21.5,66,20.01,0.0,1007.35,192.6
2019-06-20 03:30,50.6304516666667,-96.980775,6.2,8.1,52,981.78,21.5,65,19.99,0.0,1007.39,192.6
2019-06-20 03:40,50.63044,-96.9807733333333,6.3,7.7,54,981.74,21.5,65,20.05,0.0,1007.35,192.6
2019-06-20 03:50,50.6304483333333,-96.9807683333333,6.5,7.8,54,981.75,21.5,64,20.11,0.0,1007.36,192.6
2019-06-20 04:00,50.63045,-96.98077,6.0,6.9,52,981.71,21.5,64,20.17,0.0,1007.32,360.0
2019-06-20 04:10,50.6304833333333,-96.9807883333333,5.3,6.8,49,981.69,21.5,65,20.23,0.0,1007.31,360.0
2019-06-20 04:20,50.6304516666667,-96.9807816666667,2.4,4.4,22,981.77,21.1,68,20.28,0.0,1007.41,360.0
2019-06-20 04:30,50.6304333333333,-96.9807766666667,1.9,3.0,349,981.74,20.6,67,20.34,0.0,1007.42,360.0
2019-06-20 04:40,50.6304483333333,-96.9807716666667,1.7,2.6,352,981.65,20.7,68,20.36,0.0,1007.33,360.0
2019-06-20 04:50,50.6304533333333,-96.9807683333333,1.6,2.6,2,981.59,20.7,68,20.39,0.0,1007.27,360.0
2019-06-20 05:00,50.6304516666667,-96.98077,0.6,1.9,9,981.52,20.5,67,20.45,0.0,1007.21,0.0
2019-06-20 05:10,50.63045,-96.9807716666667,0.5,2.4,48,981.46,20.3,69,20.55,0.0,1007.15,0.0
2019-06-20 05:20,50.63045,-96.98077,0.4,1.9,26,981.47,20.0,72,20.74,0.0,1007.17,0.0
2019-06-20 05:30,50.63044,-96.98076,1.3,2.2,301,981.54,19.7,72,20.79,0.0,1007.26,0.0
2019-06-20 05:40,50.6304533333333,-96.9807666666667,0.7,1.7,282,981.57,19.9,69,20.85,0.0,1007.28,0.0
2019-06-20 05:50,50.6304483333333,-96.9807783333333,1.0,4.1,310,981.60,20.2,65,20.96,0.0,1007.30,0.0
2019-06-20 06:00,50.6304516666667,-96.98077,2.0,4.0,14,981.66,20.9,60,20.95,0.0,1007.34,360.0
2019-06-20 06:10,50.63045,-96.9807666666667,1.7,2.8,22,981.74,21.1,57,20.91,0.0,1007.43,360.0
2019-06-20 06:20,50.6304166666667,-96.98076,0.5,1.8,101,981.85,19.9,64,20.92,0.0,1007.61,360.0
2019-06-20 06:30,50.630445,-96.9807633333333,1.5,6.4,162,981.86,19.0,68,20.97,0.0,1007.66,360.0
2019-06-20 06:40,50.630445,-96.9807633333333,3.0,4.9,188,981.96,17.6,76,20.96,0.0,1007.82,360.0
2019-06-20 06:50,50.6304466666667,-96.980775,2.8,4.7,180,981.88,17.2,73,21.06,0.0,1007.76,360.0
2019-06-20 07:00,50.6304483333333,-96.98077,1.4,2.6,164,981.76,17.9,70,21.08,0.0,1007.62,360.0
2019-06-20 07:10,50.6304466666667,-96.9807683333333,2.5,7.6,129,981.68,18.9,63,21.04,0.0,1007.51,360.0
2019-06-20 07:20,50.630445,-96.9807683333333,4.3,6.7,114,981.60,20.8,49,21.10,0.0,1007.36,360.0
2019-06-20 07:30,50.6304466666667,-96.98077,4.0,6.1,116,981.60,20.9,56,21.12,0.0,1007.34,360.0
2019-06-20 07:40,50.6304466666667,-96.98077,5.7,7.7,126,981.66,20.6,57,21.05,0.0,1007.40,360.0
2019-06-20 07:50,50.6304466666667,-96.98077,3.8,8.7,132,981.67,20.1,58,21.08,0.0,1007.41,360.0
2019-06-20 08:00,50.6304466666667,-96.98077,7.8,9.3,110,981.60,20.6,58,21.12,0.0,1007.31,360.0
2019-06-20 08:10,50.630445,-96.98077,7.9,9.8,117,981.60,20.4,60,21.11,0.0,1007.36,360.0
2019-06-20 08:20,50.630415,-96.98078,6.5,8.3,125,981.60,20.2,63,21.11,0.0,1007.41,360.0
2019-06-20 08:30,50.6304416666667,-96.9807616666667,6.4,8.0,145,981.60,19.5,64,21.11,0.0,1007.51,360.0
2019-06-20 08:40,50.6304416666667,-96.9807683333333,5.3,7.2,182,981.64,19.1,71,21.08,0.0,1007.58,360.0
2019-06-20 08:50,50.6304416666667,-96.9807716666667,3.8,5.5,200,981.64,18.4,70,21.16,0.0,1007.58,360.0
2019-06-20 09:00,50.6304283333333,-96.9807566666667,3.8,4.9,210,981.72,17.4,67,21.18,0.0,1007.66,360.0
2019-06-20 09:10,50.6304366666667,-96.9807683333333,3.8,4.8,211,981.75,16.8,64,21.20,0.0,1007.64,360.0
2019-06-20 09:20,50.63044,-96.980775,3.3,4.3,209,981.83,16.4,63,21.21,0.0,1007.74,360.0
2019-06-20 09:30,50.63044,-96.9807733333333,3.5,6.5,180,981.96,16.1,68,21.20,0.0,1007.89,360.0
2019-06-20 09:40,50.63044,-96.980775,6.5,8.2,189,982.01,16.3,67,21.20,0.0,1007.96,360.0
2019-06-20 09:50,50.6304416666667,-96.9807733333333,5.8,7.3,190,982.05,16.3,65,21.19,0.0,1007.98,360.0
2019-06-20 10:00,50.6304416666667,-96.9807733333333,5.4,7.8,196,982.15,16.0,65,21.18,0.0,1008.10,192.6
2019-06-20 10:10,50.6304416666667,-96.9807733333333,3.5,5.4,203,982.16,15.5,65,21.19,0.0,1008.14,192.6
2019-06-20 10:20,50.6304416666667,-96.9807716666667,3.2,5.0,210,982.21,15.1,67,21.18,0.0,1008.24,192.6
2019-06-20 10:30,50.6304416666667,-96.9807716666667,2.6,4.1,217,982.12,14.7,64,21.19,0.0,1008.19,192.6
2019-06-20 10:40,50.630445,-96.980755,2.5,3.7,209,982.01,14.5,65,21.16,0.0,1008.11,192.6
2019-06-20 10:50,50.6304333333333,-96.9807583333333,3.1,4.0,210,982.02,14.4,68,21.17,0.0,1008.18,192.6
2019-06-20 11:00,50.6304333333333,-96.98076,2.5,3.2,223,982.00,14.3,67,21.15,0.0,1008.19,156.5
2019-06-20 11:10,50.630435,-96.98076,1.5,2.6,228,982.03,14.0,70,21.11,0.0,1008.25,156.5
2019-06-20 11:20,50.6304316666667,-96.9807583333333,1.9,3.2,223,982.12,14.1,68,21.05,0.0,1008.35,156.5
2019-06-20 11:30,50.6304516666667,-96.9807633333333,1.4,2.2,224,982.17,14.1,68,21.04,0.0,1008.39,156.5
2019-06-20 11:40,50.6304466666667,-96.98075,1.2,2.4,177,982.25,14.3,68,21.05,0.0,1008.47,156.5
2019-06-20 11:50,50.6304383333333,-96.980765,3.6,5.2,134,982.38,15.4,68,21.03,0.0,1008.56,156.5
2019-06-20 12:00,50.6304483333333,-96.9807666666667,3.4,4.6,142,982.40,16.7,65,21.01,0.0,1008.55,360.0
2019-06-20 12:10,50.63045,-96.9807683333333,3.6,4.8,114,982.36,18.5,64,21.00,0.0,1008.44,360.0
2019-06-20 12:20,50.63045,-96.9807666666667,4.3,5.6,97,982.35,19.6,60,20.99,0.0,1008.40,360.0
2019-06-20 12:30,50.63045,-96.980765,5.2,6.9,105,982.45,20.1,64,20.99,0.0,1008.49,360.0
2019-06-20 12:40,50.6304483333333,-96.980765,6.8,8.5,117,982.51,19.4,77,20.96,0.0,1008.59,360.0
2019-06-20 12:50,50.6304483333333,-96.9807666666667,7.0,8.6,131,982.55,18.5,76,20.96,0.0,1008.68,360.0
2019-06-20 13:00,50.6304466666667,-96.980785,6.3,8.0,123,982.57,18.6,73,20.95,0.0,1008.70,305.3
2019-06-20 13:10,50.6304433333333,-96.980775,5.9,7.9,121,982.53,18.7,69,20.93,0.0,1008.66,305.3
2019-06-20 13:20,50.6304433333333,-96.980775,5.3,6.7,112,982.51,18.9,69,20.90,0.0,1008.63,305.3
2019-06-20 13:30,50.63044,-96.9807783333333,5.3,6.5,107,982.47,19.2,68,20.90,0.0,1008.56,305.3
2019-06-20 13:40,50.63044,-96.980775,4.3,5.7,104,982.48,19.5,66,20.90,0.0,1008.51,305.3
2019-06-20 13:50,50.6304383333333,-96.9807733333333,3.8,4.9,88,982.42,19.9,63,20.87,0.0,1008.37,305.3
2019-06-20 14:00,50.6304383333333,-96.9807716666667,5.2,7.2,115,982.52,19.9,66,20.83,0.0,1008.39,323.4
2019-06-20 14:10,50.6304366666667,-96.9807866666667,5.8,7.0,107,982.43,19.6,67,20.82,0.0,1008.27,323.4
2019-06-20 14:20,50.6304333333333,-96.98075,5.0,6.1,107,982.36,19.7,65,20.90,0.0,1008.16,323.4
2019-06-20 14:30,50.6304366666667,-96.9807583333333,4.5,5.8,100,982.32,20.1,64,20.90,0.0,1008.14,323.4
2019-06-20 14:40,50.6304366666667,-96.9807583333333,4.2,5.3,87,982.31,20.4,61,20.86,0.0,1008.15,323.4
2019-06-20 14:50,50.6304383333333,-96.98076,3.3,4.4,81,982.27,20.3,63,20.78,0.0,1008.12,323.4
2019-06-20 15:00,50.6304366666667,-96.980765,3.1,4.2,89,982.31,20.5,60,20.82,0.0,1008.14,360.0
2019-06-20 15:10,50.6304316666667,-96.9807816666667,2.5,3.5,74,982.34,20.6,60,20.89,0.0,1008.16,360.0
2019-06-20 15:20,50.6304316666667,-96.9807733333333,2.3,3.3,76,982.37,20.3,62,20.93,0.0,1008.19,360.0
2019-06-20 15:30,50.6304333333333,-96.9807666666667,2.1,2.9,73,982.33,20.4,60,20.95,0.0,1008.13,360.0
2019-06-20 15:40,50.63044,-96.98076,3.5,5.1,56,982.30,20.3,59,20.91,0.0,1008.08,360.0
2019-06-20 15:50,50.6304433333333,-96.9807483333333,4.8,5.8,36,982.21,19.8,62,20.87,0.0,1008.01,360.0
2019-06-20 16:00,50.6304433333333,-96.98075,5.0,6.1,27,982.15,19.6,63,20.88,0.0,1007.98,104.2
2019-06-20 16:10,50.6304433333333,-96.980755,5.0,6.4,21,982.15,19.9,63,20.85,0.0,1007.96,104.2
2019-06-20 16:20,50.630445,-96.9807566666667,5.4,6.5,22,982.08,20.1,62,20.85,0.0,1007.86,104.2
2019-06-20 16:30,50.6304466666667,-96.9807566666667,5.3,6.5,32,982.06,20.3,62,20.73,0.0,1007.82,104.2
2019-06-20 16:40,50.6304466666667,-96.98076,4.6,5.9,13,982.06,20.3,62,20.72,0.0,1007.82,104.2
2019-06-20 16:50,50.63041,-96.98074,4.8,6.0,15,982.03,20.5,63,20.73,0.0,1007.77,104.2
2019-06-20 17:00,50.6304433333333,-96.98076,5.5,6.7,28,982.01,20.7,60,20.83,0.0,1007.74,90.0
2019-06-20 17:10,50.6304466666667,-96.9807616666667,6.0,7.3,30,982.02,20.8,62,20.88,0.0,1007.75,90.0
2019-06-20 17:20,50.630445,-96.98076,6.7,7.8,29,982.01,20.8,64,20.65,0.0,1007.75,90.0
2019-06-20 17:30,50.6304466666667,-96.9807616666667,7.0,8.2,29,982.00,20.9,64,20.71,0.0,1007.73,90.0
2019-06-20 17:40,50.630445,-96.9807633333333,5.2,6.3,27,982.04,21.1,65,20.79,0.0,1007.79,90.0
2019-06-20 17:50,50.6304466666667,-96.980765,5.5,7.8,27,982.03,21.5,64,20.93,0.0,1007.77,90.0
2019-06-20 18:00,50.6304466666667,-96.980765,7.6,9.0,26,981.99,21.6,64,20.76,0.0,1007.71,360.0
2019-06-20 18:10,50.6304433333333,-96.9807633333333,7.6,8.9,20,981.99,21.7,65,20.69,0.0,1007.70,360.0
2019-06-20 18:20,50.6304583333333,-96.980775,6.1,7.0,21,981.98,21.8,65,20.84,0.0,1007.67,360.0
2019-06-20 18:30,50.63045,-96.9807566666667,6.8,8.3,23,981.98,22.1,65,20.63,0.0,1007.66,360.0
2019-06-20 18:40,50.6304566666667,-96.9808066666667,6.0,7.0,22,981.97,22.2,63,20.57,0.0,1007.64,360.0
2019-06-20 18:50,50.6304466666667,-96.9807533333333,6.5,7.3,28,981.92,22.4,63,20.48,0.0,1007.56,360.0
2019-06-20 19:00,50.6304466666667,-96.9807616666667,6.8,7.3,24,981.90,22.6,60,20.34,0.0,1007.54,347.4
2019-06-20 19:10,50.6304483333333,-96.980775,6.9,8.0,25,981.86,22.7,59,20.38,0.0,1007.49,347.4
2019-06-20 19:20,50.63045,-96.9807683333333,7.1,8.1,26,981.87,22.8,58,20.47,0.0,1007.49,347.4
2019-06-20 19:30,50.63045,-96.98077,7.2,8.1,28,981.76,22.9,59,20.45,0.0,1007.36,347.4
2019-06-20 19:40,50.6304483333333,-96.9807733333333,6.6,7.8,35,981.75,23.1,56,20.45,0.0,1007.33,347.4
2019-06-20 19:50,50.63045,-96.9807733333333,5.3,6.4,44,981.73,23.6,51,20.43,0.0,1007.28,347.4
2019-06-20 20:00,50.6304466666667,-96.98078,6.2,7.7,37,981.70,23.7,54,20.35,0.0,1007.24,287.7
2019-06-20 20:10,50.6304483333333,-96.9807616666667,9.0,10.9,28,981.62,23.3,55,20.36,0.0,1007.17,287.7
2019-06-20 20:20,50.6304483333333,-96.9807616666667,8.8,10.1,26,981.63,23.2,58,20.26,0.0,1007.17,287.7
2019-06-20 20:30,50.6304516666667,-96.9807666666667,7.1,8.4,32,981.63,23.5,51,20.27,0.0,1007.15,287.7
2019-06-20 20:40,50.630455,-96.980755,7.2,8.6,35,981.61,23.9,51,20.41,0.0,1007.11,287.7
2019-06-20 20:50,50.6304583333333,-96.98077,7.7,9.1,34,981.62,23.8,53,20.23,0.0,1007.12,287.7
2019-06-20 21:00,50.6304616666667,-96.9807733333333,8.2,11.0,41,981.65,23.8,53,20.53,0.0,1007.14,360.0
2019-06-20 21:10,50.630435,-96.9807733333333,8.5,13.4,86,981.76,24.5,49,21.04,0.0,1007.22,360.0
2019-06-20 21:20,50.6304433333333,-96.9807733333333,10.7,15.1,148,981.67,24.5,43,21.26,0.0,1007.12,360.0
2019-06-20 21:30,50.6304466666667,-96.9807716666667,12.2,15.1,156,981.64,24.5,40,21.42,0.0,1007.08,360.0
2019-06-20 21:40,50.6304216666667,-96.980785,11.4,15.2,153,981.69,24.6,40,21.43,0.0,1007.11,360.0
2019-06-20 21:50,50.630435,-96.9807816666667,10.3,13.8,157,981.73,24.6,40,21.61,0.0,1007.14,360.0
2019-06-20 22:00,50.6304433333333,-96.98077,9.5,12.1,158,981.70,24.8,36,21.55,0.0,1007.12,192.6
2019-06-20 22:10,50.6304466666667,-96.9807766666667,9.8,11.9,149,981.71,24.7,37,21.82,0.0,1007.14,192.6
2019-06-20 22:20,50.630455,-96.9807833333333,9.5,11.7,152,981.70,24.6,39,21.69,0.0,1007.13,192.6
2019-06-20 22:30,50.6304033333333,-96.98075,9.1,11.3,159,981.68,24.8,33,21.67,0.0,1007.08,192.6
2019-06-20 22:40,50.6304416666667,-96.9807716666667,8.0,10.9,154,981.63,25.1,30,21.67,0.0,1007.02,192.6
2019-06-20 22:50,50.6304433333333,-96.9807733333333,7.0,8.8,158,981.60,25.2,30,21.82,0.0,1006.98,192.6
2019-06-20 23:00,50.6304633333333,-96.980775,7.6,9.8,152,981.59,25.1,31,21.75,0.0,1006.94,3.2
2019-06-20 23:10,50.63046,-96.9807833333333,6.6,8.2,150,981.62,25.1,33,21.80,0.0,1006.97,3.2
2019-06-20 23:20,50.630445,-96.980775,6.2,7.9,146,981.63,25.1,32,21.87,0.0,1006.99,3.2
2019-06-20 23:30,50.63045,-96.9807783333333,5.9,7.3,151,981.68,25.1,33,22.13,0.0,1007.04,3.2
